{"data":{"norad_id":41591,"epoch":"2026-09-19T11:29:27.969216Z","epoch_age_seconds":113898,"freshness":"FRESH","line1":"1 41591U 16039A   26262.47879594 -.00000200  00000+0  00000+0 0  9991","line2":"2 41591   0.0166 212.9756 0002207 314.1746 154.1144  1.00272538 37552","mean_motion":1.00272538,"eccentricity":0.0002207,"inclination_deg":0.0166,"raan_deg":212.9756,"arg_perigee_deg":314.1746,"mean_anomaly_deg":154.1144,"bstar":0,"rev_number":3755,"period_min":1436.0861196113,"perigee_km":35777.078159521,"apogee_km":35795.689579033,"semimajor_km":42164.520869277,"source":"CELESTRAK","updated_at":"2026-09-20T09:00:35.225760Z"}}